Wind_Speed
19 20 21 21 22 22 22 23 25 27 30 29 28 28 22 14 12 8 3 7 12 7 2 3 3 2 5 7 10 12 10 9 10 11 11 10 8 9 9 10 12 10 12 13 10 8 7 6 6 5 7 12 14 21 30 28 17 11 9 9 10 7 4 4 4 5 6 9 10 11 11 9 6 4 5 6 5 5 6 5 4 3 3 2 4 1 4
19 19 20 20 21 21 21 22 23 24 27 27 28 26 21 19 20 12 1 1 7 6 1 3 4 4 6 8 11 15 14 12 12 10 9 8 7 7 9 10 11 10 11 11 8 7 7 6 6 5 3 8 16 25 34 30 15 9 10 10 9 7 4 5 4 4 6 6 5 7 8 6 4 4 6 7 7 7 4 2 3 3 4 5 6 2 6
19 19 20 20 20 21 21 21 21 22 23 23 23 22 20 17 14 11 11 11 2 6 4 4 4 4 6 8 9 11 12 13 17 16 12 13 11 8 9 11 12 12 12 13 11 7 6 4 5 5 2 2 8 14 22 24 17 16 21 20 14 8 5 6 6 6 6 5 5 7 6 4 3 3 8 10 10 9 5 3 4 4 3 5 7 5 6
18 19 19 19 19 21 21 20 20 20 21 21 20 17 14 8 4 8 15 13 6 4 6 6 4 3 4 6 7 8 8 10 17 18 14 17 17 13 12 12 11 11 12 13 10 4 4 6 6 5 2 0 3 3 3 6 10 18 27 25 14 4 4 7 9 10 8 8 8 7 6 7 6 6 9 9 10 9 7 5 4 6 5 4 5 7 6
18 18 19 19 19 20 21 21 20 19 19 19 17 14 8 3 2 4 8 9 8 8 9 11 8 6 7 4 5 9 10 9 12 13 11 15 17 13 12 9 5 7 10 10 6 3 6 7 6 6 3 2 3 2 2 4 7 8 16 22 12 3 4 9 12 14 14 13 10 7 8 12 11 9 9 10 9 9 9 6 5 6 7 4 8 8 12
19 18 19 19 19 19 20 21 21 20 19 17 13 9 4 2 4 6 6 5 4 6 9 11 10 11 9 4 4 10 13 11 10 9 10 14 15 10 8 8 8 10 11 10 5 3 5 4 4 5 4 4 5 5 3 2 9 13 2 12 8 5 6 9 11 14 16 16 13 8 8 12 13 13 12 11 10 9 9 8 8 9 7 7 9 13 15
19 19 19 19 18 19 19 21 21 20 19 14 8 6 4 3 4 7 9 6 6 11 16 16 11 10 8 5 5 9 12 12 10 7 6 10 11 6 3 3 3 4 8 9 4 1 2 2 2 3 4 5 4 4 4 2 6 9 4 3 3 4 6 9 12 12 14 15 14 9 8 8 11 12 9 7 7 8 9 8 9 12 9 8 14 17 16
21 20 19 19 19 19 19 20 20 20 18 11 6 6 7 5 4 9 12 9 10 14 16 11 7 7 7 4 5 8 11 11 9 6 4 6 7 4 3 4 4 5 8 6 2 1 2 3 2 1 2 3 3 2 3 4 6 5 2 2 2 3 5 8 11 9 11 13 12 9 8 8 8 7 5 5 4 4 4 5 6 7 5 5 14 16 11
21 20 20 20 19 19 19 18 19 19 18 12 7 7 7 4 3 8 10 6 6 9 9 7 5 4 3 3 5 9 12 10 7 5 4 2 3 6 8 7 5 5 6 4 2 2 4 4 6 6 3 3 4 3 3 3 5 5 2 2 3 2 4 4 7 6 7 8 7 7 7 7 7 5 4 5 4 1 2 2 4 5 3 4 10 11 9
20 20 20 20 19 18 18 17 17 17 16 14 10 8 9 6 3 6 7 4 5 6 5 6 5 3 3 7 9 12 14 12 7 4 3 4 7 10 10 6 4 3 5 6 7 10 11 10 12 12 9 7 8 8 7 5 3 3 2 2 3 1 2 3 5 6 5 5 7 8 5 5 2 5 4 4 6 5 4 3 2 2 5 8 7 9 7
20 20 20 20 18 17 18 17 15 15 14 14 11 9 11 10 7 9 8 3 4 5 5 4 3 4 9 13 14 14 14 11 8 5 4 7 13 18 15 7 3 3 4 13 17 15 11 10 12 12 9 6 7 9 9 6 4 4 2 1 4 2 3 3 3 5 5 5 5 6 4 4 3 6 2 4 8 10 8 4 2 1 2 6 6 6 5
19 19 19 19 16 15 17 16 14 13 12 12 11 9 8 8 8 9 6 3 4 5 3 4 6 9 14 17 15 13 11 11 11 8 5 6 11 19 19 10 5 4 13 22 23 15 8 6 8 8 7 6 7 7 7 5 5 7 4 2 3 4 4 1 0 5 4 2 5 5 4 4 5 6 2 6 10 12 10 6 4 5 5 7 8 8 10
18 18 18 18 15 14 15 16 14 13 11 10 10 8 6 5 6 6 6 6 4 2 3 8 14 15 16 16 15 14 15 16 15 11 10 9 11 16 18 12 8 14 22 24 20 12 5 3 4 5 5 5 6 6 6 5 4 7 7 2 2 1 3 2 2 3 2 2 5 4 6 5 5 3 2 6 7 8 9 7 8 9 5 6 8 7 9
16 16 16 15 14 13 14 16 15 13 12 11 10 8 5 4 4 5 7 4 2 5 7 8 11 13 15 16 16 13 14 17 17 13 11 9 10 14 19 21 21 23 24 19 12 5 2 1 3 4 4 5 5 4 6 6 4 5 8 5 4 5 3 3 3 2 2 4 3 1 1 4 6 5 3 1 2 5 7 6 5 8 8 4 7 9 7
14 14 14 13 13 13 14 16 15 13 12 11 10 8 3 2 2 4 7 6 5 8 7 5 5 12 13 15 16 11 8 9 11 10 7 8 13 17 22 27 28 27 24 14 5 2 2 1 2 1 3 2 1 3 4 4 3 3 6 5 0 3 2 4 3 1 1 4 4 3 4 3 3 6 7 4 3 10 11 6 3 6 11 9 4 11 10
14 14 13 13 14 13 15 16 15 14 13 11 11 7 1 3 2 3 7 8 5 4 7 7 14 18 13 13 15 11 6 5 6 7 5 7 15 21 26 28 27 26 24 12 2 2 3 1 2 2 2 2 2 2 3 3 3 5 6 6 7 5 3 4 5 2 2 5 4 2 3 2 4 6 8 6 2 9 9 7 3 6 12 11 0 10 12
15 14 13 13 14 14 15 16 15 14 13 12 12 7 4 4 2 3 7 7 5 10 18 19 19 15 7 7 11 10 9 7 5 3 3 5 10 18 28 31 25 25 23 9 1 4 3 1 1 0 3 2 2 2 3 2 3 6 7 7 8 6 4 3 5 3 2 4 3 2 3 1 3 5 9 10 3 7 8 5 3 8 11 8 5 8 9
15 14 14 13 13 14 15 15 14 15 14 12 14 9 4 4 2 2 6 8 5 11 18 13 11 12 9 8 10 10 11 10 6 1 2 3 3 10 23 25 17 20 21 8 2 4 2 1 1 1 3 4 1 4 2 1 1 3 3 3 3 3 3 3 4 3 3 4 3 1 0 1 3 7 13 15 8 8 7 3 5 5 9 13 16 15 15
16 15 14 13 14 14 14 14 14 15 14 13 14 11 5 5 3 1 6 9 6 10 18 17 16 18 15 12 14 13 11 10 7 3 1 2 5 12 19 15 7 11 14 7 2 3 3 2 2 2 2 4 2 1 1 2 2 2 1 2 2 1 2 3 2 2 2 3 3 1 1 1 8 14 15 12 6 4 3 5 4 6 13 19 22 23 24
16 16 14 14 14 14 14 14 13 14 14 12 13 12 5 7 5 1 4 7 9 17 25 21 16 15 13 12 16 16 13 11 7 4 1 1 7 12 10 7 6 9 8 5 3 3 2 3 4 2 1 3 2 0 1 2 2 1 1 1 1 1 1 2 0 1 2 2 3 3 2 6 15 15 8 7 5 4 9 10 9 13 20 22 23 22 23
16 16 14 14 14 13 13 14 13 13 13 11 13 13 6 9 6 1 3 6 9 15 16 10 8 14 16 17 19 18 16 15 10 5 4 4 5 6 2 1 4 5 3 2 2 2 2 2 3 3 2 2 1 0 2 2 0 1 2 3 1 1 1 0 2 1 3 2 2 2 5 7 17 15 6 8 10 6 10 11 11 15 22 24 23 21 19
15 15 14 13 13 13 13 13 12 13 13 11 12 13 8 8 6 3 6 9 12 17 21 20 23 24 21 18 19 19 18 16 11 7 8 7 2 1 1 4 4 4 3 3 1 1 2 2 2 2 2 2 1 1 2 2 1 1 1 3 2 3 4 5 2 1 3 4 3 3 2 9 23 26 19 21 25 20 17 16 14 14 17 19 20 18 16
13 14 13 13 12 12 12 13 12 13 12 11 11 13 11 8 6 6 9 11 14 22 28 29 27 23 16 12 11 12 13 12 9 8 10 7 1 1 1 3 3 3 3 3 2 1 1 1 2 2 3 2 1 1 1 1 1 1 1 2 1 5 6 6 5 2 4 6 3 1 4 13 25 30 29 30 32 29 28 27 24 21 19 17 17 16 14
12 13 13 12 12 11 12 12 12 12 12 11 11 12 11 8 5 6 9 8 10 15 18 17 16 12 9 8 5 4 7 7 5 6 9 9 4 1 2 2 3 4 5 6 6 4 3 3 3 2 3 3 2 1 1 2 1 1 2 2 2 1 1 4 4 4 4 3 3 3 6 11 17 23 26 27 28 26 27 27 26 26 26 22 17 16 14
12 12 12 12 11 11 11 11 12 12 11 11 11 11 11 7 3 5 7 6 8 9 7 9 10 7 6 9 6 4 5 5 5 7 8 9 6 4 4 3 4 6 9 10 11 7 3 2 2 1 2 5 5 2 0 0 1 2 2 0 2 0 3 4 4 3 4 3 4 2 10 13 13 14 15 18 20 19 19 20 20 20 22 21 18 16 15
12 12 11 11 11 11 11 11 12 12 11 11 10 10 10 6 3 4 4 4 8 7 5 8 10 5 6 10 7 6 6 7 9 11 10 8 7 5 4 5 5 6 9 12 11 8 4 2 1 1 1 4 5 3 2 2 1 1 2 2 3 3 2 2 4 4 3 2 3 4 9 11 10 10 9 9 9 10 13 14 14 14 16 18 20 19 18
12 11 11 11 10 11 11 11 11 12 11 10 9 10 9 5 7 7 3 3 6 5 3 6 13 13 14 13 6 6 8 9 9 10 11 9 8 7 6 6 7 8 10 10 9 6 2 1 1 2 3 3 4 3 1 1 3 2 2 0 1 5 3 1 4 5 2 2 4 5 5 3 3 7 8 5 2 3 7 10 11 11 11 14 17 16 15
11 11 10 10 10 10 10 10 11 12 11 9 9 9 8 5 8 7 2 3 6 7 6 12 22 23 19 12 4 4 8 11 10 10 10 11 9 8 7 8 9 9 9 8 6 3 0 1 2 4 3 2 2 2 2 1 3 3 3 5 4 3 5 4 5 4 2 4 9 9 8 6 5 8 11 9 7 8 12 14 11 7 5 7 12 16 15
10 10 9 9 9 10 10 10 11 11 10 9 8 6 2 6 8 6 3 1 4 9 11 15 19 16 13 10 7 5 7 10 9 7 8 10 9 9 9 8 8 8 7 7 5 3 2 3 5 6 5 3 1 1 1 2 1 2 5 7 6 6 6 8 12 9 6 10 13 13 12 11 11 14 17 16 14 13 13 12 10 7 6 7 10 13 16
9 9 8 8 9 9 9 10 10 10 8 7 5 1 4 6 6 4 2 3 7 8 8 7 8 10 14 15 11 7 6 10 10 6 6 8 8 7 8 8 8 8 8 7 4 3 4 5 6 6 7 5 1 1 0 2 3 1 5 9 16 18 16 17 19 16 15 17 19 20 20 19 17 18 18 16 14 12 12 11 10 9 8 8 8 10 13
8 7 7 8 8 9 10 9 9 9 8 6 4 2 2 3 5 6 4 5 7 8 8 6 8 13 16 13 9 6 6 11 12 7 5 7 8 7 7 8 8 9 9 8 5 4 4 4 4 5 7 7 4 2 1 2 3 1 3 12 22 24 22 21 20 20 22 25 26 26 24 21 19 17 16 16 14 12 12 11 11 10 8 7 7 9 11
7 7 7 8 8 9 9 9 9 9 8 7 7 7 3 2 4 7 7 6 7 6 6 5 6 7 7 7 9 8 6 11 13 10 7 8 9 8 8 9 8 8 9 7 4 4 4 3 5 6 6 5 4 2 2 3 3 3 6 14 23 26 25 25 25 25 24 24 24 23 20 20 20 19 17 16 14 12 12 11 10 9 8 6 6 7 9
6 7 7 8 8 9 9 9 9 9 9 8 8 7 2 3 2 4 3 4 6 5 3 3 3 3 4 9 11 6 7 10 13 12 9 9 10 9 8 10 9 7 7 7 4 2 3 3 4 4 4 3 3 3 2 1 2 6 11 18 26 30 31 30 31 30 28 26 24 21 18 18 20 19 16 15 14 14 14 12 10 9 9 9 10 11 11
5 6 7 8 8 9 8 8 9 9 7 6 5 4 3 3 1 3 5 6 6 4 4 4 3 2 5 9 8 2 8 9 10 10 7 7 10 10 7 7 7 5 6 7 4 2 3 3 3 2 3 2 4 4 1 3 8 16 20 22 26 31 31 29 28 28 27 26 25 23 20 17 16 15 15 15 14 13 13 14 14 13 13 14 15 14 15
4 6 7 8 8 8 8 8 8 6 4 4 3 2 2 1 4 8 10 8 5 3 3 5 4 2 3 5 4 1 4 4 6 9 7 6 10 10 7 5 3 3 5 6 3 2 2 1 2 2 2 2 3 2 1 4 12 21 24 23 24 25 25 23 23 23 22 20 20 20 18 15 14 15 16 16 15 13 12 14 15 15 15 16 15 15 16
5 6 7 7 7 7 6 4 3 3 1 0 1 1 2 5 7 9 10 9 7 5 4 3 3 2 2 2 3 4 6 6 6 9 8 6 7 9 7 3 1 2 4 3 1 1 2 1 1 1 1 3 3 3 7 13 19 23 26 25 23 22 20 18 17 18 17 16 16 17 17 16 15 14 13 13 14 13 13 14 14 15 16 16 16 16 16
5 5 5 5 5 5 2 1 0 1 2 2 3 5 7 9 8 8 8 8 8 9 7 4 3 4 4 3 4 6 7 6 4 3 5 3 3 7 7 3 1 3 3 1 1 1 2 0 3 4 3 4 6 11 17 23 25 25 25 25 22 20 19 15 12 11 12 14 16 18 20 19 17 15 14 13 14 14 14 14 14 15 16 16 16 17 17
3 3 3 3 4 3 3 4 2 4 5 4 5 6 7 7 5 5 6 5 5 8 8 5 4 6 5 4 5 7 6 5 5 4 2 3 3 2 3 1 1 2 1 1 2 1 1 3 4 5 6 8 13 17 21 24 26 26 24 23 21 19 17 14 10 11 13 15 16 17 19 20 18 16 15 14 13 13 14 14 14 14 14 15 15 15 16
1 1 2 3 4 3 3 3 2 4 5 5 5 5 3 4 3 2 4 5 3 5 7 6 6 8 8 5 4 7 6 3 4 4 3 4 5 1 1 1 0 0 1 1 1 1 3 3 4 5 5 6 12 17 20 23 25 24 22 20 19 18 17 15 13 13 14 13 11 11 12 13 14 14 14 14 13 13 13 13 13 13 14 14 15 15 16
1 3 3 4 6 6 5 3 1 2 3 3 3 3 2 3 3 2 4 3 2 4 6 5 6 9 10 9 6 5 7 4 2 2 1 2 3 2 0 0 1 1 2 0 2 2 4 3 3 4 3 4 8 15 20 22 23 22 20 18 17 16 15 15 12 11 10 9 7 7 8 8 9 11 13 14 13 12 12 11 11 12 13 14 15 16 16
2 3 3 6 8 6 4 3 1 1 3 2 2 2 2 3 3 3 3 1 2 3 6 5 4 6 8 10 8 3 5 5 3 2 1 2 4 4 1 1 1 2 1 1 1 3 4 4 3 3 3 6 11 16 18 19 20 20 18 16 14 13 12 11 9 8 8 8 7 7 8 7 7 8 9 11 12 12 11 11 12 13 14 15 16 16 17
2 2 4 6 6 4 3 2 2 2 2 1 1 1 1 1 2 2 2 2 2 3 6 8 5 2 1 3 4 1 4 6 6 4 2 2 4 4 1 0 1 2 1 0 1 3 3 3 4 3 4 9 15 17 17 17 18 17 16 15 13 12 11 10 9 8 8 8 7 7 8 8 9 10 11 11 12 12 12 12 13 14 15 17 18 19 19
1 3 4 4 4 4 3 3 3 2 1 1 1 2 1 1 1 1 2 3 4 2 3 5 4 2 4 4 4 4 4 5 6 5 2 2 3 2 1 2 2 0 0 1 3 4 4 3 3 4 7 11 15 16 15 15 14 14 15 15 13 12 10 9 8 7 7 7 6 7 7 7 9 11 10 9 10 12 14 14 14 14 16 17 19 19 20
2 3 3 3 3 4 3 2 2 2 1 1 1 0 1 3 2 1 1 3 4 1 3 1 2 3 4 4 4 5 4 4 5 4 2 2 2 2 1 1 1 2 1 3 3 4 3 3 3 6 10 12 13 14 15 15 15 15 15 15 14 13 11 10 8 7 7 7 7 8 8 7 7 8 8 9 10 13 14 14 13 14 15 16 16 16 17
3 4 4 3 3 3 2 1 2 1 1 1 1 2 1 1 2 2 4 6 4 5 9 8 7 8 5 4 4 3 3 4 3 2 2 1 2 2 1 1 2 1 3 4 3 3 3 2 2 6 10 12 13 14 15 14 15 15 16 16 17 17 16 13 10 9 8 8 8 8 8 8 6 6 7 10 11 11 11 12 13 13 13 13 13 14 15
4 5 5 2 1 2 1 0 1 1 1 2 2 3 5 4 3 3 7 12 13 13 13 12 11 10 6 4 3 3 4 4 2 2 3 2 2 2 2 1 1 3 4 3 3 4 3 0 1 6 10 11 12 13 13 13 14 15 16 17 18 18 17 16 13 11 10 8 7 8 9 9 8 7 7 9 9 8 9 10 11 11 11 12 13 14 15
5 5 4 1 1 2 0 1 2 3 5 8 10 11 8 3 5 9 12 15 16 15 12 11 10 9 7 5 4 3 4 4 2 2 3 2 1 2 3 2 2 2 3 3 3 2 2 1 4 8 10 10 10 11 11 12 11 12 13 15 16 16 17 17 16 14 12 10 9 9 10 10 9 8 8 7 7 6 8 9 9 9 10 11 12 12 13
5 4 3 2 1 1 1 5 7 8 9 12 14 11 3 7 11 15 14 13 14 15 13 10 6 5 5 5 3 2 3 4 3 2 2 2 1 1 3 3 3 2 2 3 3 2 2 3 6 9 8 8 9 9 9 10 10 10 11 12 13 14 15 16 16 16 15 13 12 12 12 11 11 10 9 8 7 7 8 9 10 9 10 10 10 10 10
6 3 2 1 2 3 7 12 11 9 14 21 22 17 13 14 15 16 15 13 12 12 11 8 5 2 2 4 3 1 2 2 1 1 2 3 2 1 1 2 3 3 3 1 2 3 5 6 7 7 7 7 8 8 8 8 8 9 10 11 11 11 12 14 15 15 15 14 14 14 13 13 13 12 12 11 10 11 11 10 9 9 10 10 10 9 8
6 4 3 3 3 5 11 14 10 6 12 20 23 19 16 16 16 14 12 12 12 9 7 6 5 3 2 2 3 2 2 1 1 2 2 2 1 1 3 3 2 2 1 2 4 6 7 7 6 6 7 7 7 7 7 7 8 9 10 11 11 11 11 12 13 14 14 14 14 13 13 14 13 13 13 12 12 12 11 10 9 9 10 10 10 9 8
6 4 5 4 4 6 9 8 4 3 6 13 17 17 14 15 14 13 12 13 13 9 4 3 3 2 2 3 2 1 2 2 2 3 2 2 1 2 3 3 1 1 4 7 8 8 7 6 5 6 6 6 5 5 5 6 7 8 9 11 12 12 12 12 13 13 13 12 12 12 13 13 12 11 11 10 11 11 11 10 10 10 10 10 10 9 9
4 5 7 6 8 11 10 7 5 7 10 13 15 14 12 12 13 12 11 12 12 9 5 4 3 3 2 1 2 2 2 2 3 3 3 2 3 2 3 4 4 6 8 9 9 7 6 6 6 5 4 4 4 4 5 7 7 7 9 10 12 12 13 13 13 13 12 11 10 10 10 11 11 11 9 9 11 13 14 14 14 12 11 11 11 10 9
Wind_Direction
330 333 337 341 344 345 348 350 349 346 340 338 342 345 347 338 303 278 153 167 197 205 288 254 195 224 250 249 258 263 265 264 272 273 259 252 247 240 246 248 248 253 253 255 254 241 248 253 233 223 208 202 197 193 198 204 198 179 195 212 195 179 179 195 228 274 273 264 253 225 198 179 173 188 172 161 174 169 156 173 186 188 212 133 82 85 262
327 330 335 340 343 345 349 351 352 351 346 342 342 342 339 327 308 291 340 88 215 213 242 227 222 253 249 248 253 250 251 255 258 260 254 250 248 248 252 252 251 258 262 264 264 251 251 260 252 246 217 214 214 200 196 200 196 178 194 192 177 181 184 172 186 252 267 278 274 237 213 188 185 188 170 176 181 160 138 128 143 188 215 156 121 172 244
326 328 331 337 340 344 348 351 353 354 348 341 339 337 335 332 314 300 329 349 293 220 245 255 248 253 256 260 256 251 254 250 244 246 251 252 252 255 256 261 268 276 290 294 287 270 255 262 272 258 213 214 235 214 203 203 198 196 195 178 164 181 183 159 177 206 218 218 220 218 208 202 224 189 176 192 194 177 160 120 143 204 218 138 136 183 245
326 327 329 333 337 341 345 348 352 354 347 339 334 332 335 341 326 316 327 339 345 297 318 355 359 330 321 300 278 275 277 266 256 251 246 244 247 253 257 266 282 287 291 290 281 285 297 299 307 285 243 167 243 224 204 213 222 221 203 176 153 165 182 168 182 198 201 201 217 221 183 180 207 203 186 196 201 181 146 112 157 191 172 171 199 178 174
324 326 327 329 334 338 341 345 348 352 348 339 331 330 336 328 319 356 339 329 341 343 356 23 18 322 319 321 291 293 292 289 281 272 263 254 249 246 243 242 258 273 281 285 278 342 336 313 325 323 302 286 261 265 58 59 2 304 214 183 158 128 189 187 187 200 209 210 217 221 193 191 197 197 199 206 198 163 138 152 188 163 143 206 238 179 160
323 326 327 328 331 333 338 343 344 348 349 343 334 331 336 314 322 359 1 325 339 348 335 341 332 308 308 292 274 294 292 286 279 271 276 274 263 251 237 226 225 241 262 275 278 343 349 322 342 348 334 326 320 328 343 74 29 10 269 195 173 145 193 197 187 201 215 218 220 209 193 202 201 197 204 213 207 178 165 186 175 151 164 207 207 182 173
321 323 324 325 328 328 334 341 341 346 352 351 356 360 350 334 316 336 351 330 299 297 298 301 300 299 307 290 270 292 295 292 289 275 280 285 271 247 220 246 268 282 286 281 268 2 350 294 317 351 350 341 333 338 332 339 28 24 8 251 206 180 207 197 183 199 214 216 220 204 177 193 200 199 199 198 208 200 192 199 174 166 188 192 178 184 188
319 323 323 323 327 326 331 338 339 345 352 359 44 42 3 360 343 327 331 318 292 289 289 294 297 292 296 280 274 298 300 304 316 306 290 304 306 314 337 335 355 349 321 300 234 200 243 243 262 279 28 2 332 314 314 331 357 6 359 315 297 239 234 200 174 192 217 214 213 199 176 180 186 192 185 165 194 233 213 199 175 174 205 186 171 182 205
315 318 320 321 325 326 328 335 339 344 350 358 34 39 4 357 358 334 324 301 291 297 293 300 299 281 290 297 303 311 305 305 318 302 261 268 343 342 334 338 360 360 356 27 86 289 286 271 279 280 258 256 268 272 276 305 337 336 326 325 317 267 250 219 154 158 213 205 175 167 172 173 178 200 203 161 148 206 206 160 156 168 160 138 161 182 212
309 313 316 318 323 327 326 331 338 343 349 356 10 25 10 355 360 5 353 299 288 312 312 304 289 281 336 330 316 310 303 301 310 316 301 315 341 336 319 322 11 31 36 22 334 314 313 299 291 291 282 269 272 274 275 275 283 291 301 308 285 193 173 216 158 152 222 211 143 133 121 111 170 237 235 157 124 114 104 70 48 183 145 133 168 204 213
306 309 311 315 322 326 324 326 334 338 346 355 353 359 7 0 343 348 351 301 286 318 322 311 310 332 332 325 315 305 305 317 337 359 330 308 335 344 332 333 59 100 1 342 327 322 318 297 292 295 293 301 310 296 289 290 273 259 242 264 298 355 109 202 174 145 221 233 128 106 91 105 201 244 236 119 112 105 98 92 55 333 150 143 163 176 143
304 306 308 313 319 321 321 323 327 330 339 347 337 332 353 357 337 331 324 278 297 322 312 297 302 310 313 312 308 303 314 329 333 353 355 315 346 359 351 359 51 354 338 337 329 331 331 297 302 314 312 328 332 313 308 314 299 290 279 214 289 347 45 354 57 119 176 195 98 117 190 207 233 242 178 118 114 107 100 91 54 43 82 111 119 134 136
299 302 305 310 315 318 319 319 320 323 326 329 325 322 330 338 333 322 299 281 279 283 300 301 297 299 307 310 306 308 324 332 335 2 20 357 359 5 358 359 354 332 336 334 326 336 352 309 329 332 313 334 345 322 304 292 284 297 300 257 184 51 49 41 27 82 141 102 90 155 215 255 291 279 120 103 96 89 81 55 15 5 28 92 106 117 128
299 302 305 310 315 315 315 315 316 318 318 317 316 316 318 317 318 313 304 290 255 281 292 293 299 308 316 317 315 315 329 340 347 2 17 8 357 350 344 343 339 338 342 335 323 345 42 345 4 351 327 356 5 327 295 276 251 261 281 274 154 131 105 80 43 37 127 115 93 161 256 346 340 333 343 40 124 122 109 82 7 342 348 27 102 103 100
305 306 307 310 314 313 311 313 315 315 315 313 307 307 306 267 282 319 313 298 293 293 265 221 318 328 319 315 319 323 331 348 351 341 344 7 0 348 340 340 345 354 360 352 336 51 69 62 69 359 335 17 5 296 289 283 270 249 268 283 163 126 143 138 116 31 91 92 65 37 49 38 288 288 304 306 146 137 123 91 360 330 343 349 109 128 123
303 304 303 302 306 308 308 310 313 314 313 309 303 301 219 190 239 348 319 300 298 282 237 250 314 321 310 307 319 329 333 342 344 329 330 2 355 347 342 343 355 10 11 3 1 42 38 94 139 194 219 185 183 266 285 299 323 318 327 3 30 33 42 110 109 64 57 92 94 118 112 132 251 283 316 332 100 126 104 66 1 306 333 341 117 142 133
295 295 295 298 301 302 302 306 310 312 310 307 303 295 172 173 255 337 323 306 280 270 272 284 308 317 309 313 324 334 339 336 339 341 335 336 340 342 343 345 357 10 10 12 30 5 23 115 28 321 225 232 156 175 277 312 343 327 342 19 31 22 16 60 90 79 64 91 111 157 124 109 288 310 325 324 355 92 80 70 251 293 334 6 96 125 120
291 290 290 293 297 299 299 302 306 307 305 303 301 289 209 185 244 337 322 313 294 274 275 285 310 307 293 298 309 318 330 330 326 328 311 309 328 341 338 336 344 358 2 17 67 352 357 202 268 162 231 283 212 171 230 301 15 319 330 30 27 14 19 50 101 98 60 81 103 81 70 291 314 329 329 328 352 66 77 160 223 308 16 63 84 89 91
289 290 290 291 294 297 299 301 302 301 301 301 298 288 235 198 200 31 325 313 298 269 270 277 289 290 290 295 296 301 317 322 322 345 352 323 351 347 335 326 329 350 353 5 39 4 352 302 296 172 221 297 294 153 124 135 179 273 316 65 42 30 21 26 78 95 62 107 113 59 220 303 335 332 337 355 27 88 134 178 174 65 66 76 80 83 85
284 286 288 290 293 294 296 300 299 298 301 301 296 292 252 194 186 65 338 313 298 281 280 283 283 280 285 289 286 293 308 311 320 13 96 269 345 357 352 340 343 346 348 0 11 9 359 312 314 325 292 291 293 117 117 143 173 195 126 54 15 187 45 20 103 128 83 87 68 71 209 311 345 343 344 24 41 159 154 143 122 84 77 76 75 79 82
281 283 285 288 290 290 292 295 295 297 301 301 298 296 259 191 189 337 319 297 294 284 282 291 291 282 281 278 274 277 280 274 273 301 307 298 346 19 68 222 311 320 335 3 343 347 5 306 298 324 319 300 322 171 170 157 100 118 137 121 86 17 45 100 234 239 88 105 79 126 223 318 12 32 53 35 32 84 119 112 104 93 85 78 73 72 76
280 282 283 284 287 289 290 290 291 295 299 302 301 296 263 210 215 272 278 277 276 269 273 286 291 285 276 268 267 267 262 255 250 264 285 288 323 59 229 245 254 259 298 356 330 273 347 326 293 313 299 279 339 324 198 163 160 309 42 94 105 238 202 150 126 45 107 134 169 204 249 31 49 58 59 48 49 56 62 62 65 73 76 77 74 66 60
278 279 280 281 284 287 289 290 292 293 298 303 300 292 278 252 242 256 270 279 282 279 281 285 285 282 278 275 271 259 247 239 232 245 261 264 249 94 253 270 288 279 307 16 32 258 298 287 252 278 280 267 306 316 298 96 131 222 24 62 175 227 199 142 112 120 105 87 74 24 29 49 62 68 67 59 55 52 49 48 44 38 43 62 77 73 57
277 277 278 279 282 285 287 290 293 292 295 300 296 289 286 279 276 283 285 292 304 302 297 286 276 277 296 313 313 259 235 228 228 245 246 242 240 190 202 251 333 314 301 338 343 307 276 263 266 285 288 294 326 23 59 46 62 142 85 32 328 281 129 106 106 129 120 80 358 3 44 50 61 71 71 66 60 54 49 46 39 32 33 43 64 82 80
275 275 276 278 281 284 286 290 295 295 295 296 292 285 281 278 293 304 294 302 320 322 313 294 283 281 304 307 297 250 234 228 224 235 240 244 246 216 208 263 321 302 295 318 327 310 276 254 289 326 290 303 334 3 122 169 176 141 104 131 244 109 89 108 108 93 109 164 229 106 79 68 59 62 64 63 61 52 43 44 43 35 27 26 38 60 70
272 273 277 278 278 282 285 288 294 295 294 296 292 284 279 265 221 233 257 306 313 295 269 280 278 264 292 294 260 199 203 213 218 231 239 248 254 241 247 289 308 295 295 308 311 298 263 222 216 160 242 295 327 335 305 280 279 101 112 179 182 127 96 122 122 100 86 122 195 130 85 64 54 59 56 51 52 38 28 30 26 15 6 5 18 39 51
271 272 276 278 278 282 284 287 293 296 297 297 289 280 279 252 201 206 217 357 322 286 242 284 288 294 308 306 265 208 216 214 223 242 236 226 236 243 251 272 281 289 301 310 309 299 266 237 263 226 221 256 288 304 340 312 312 5 74 287 80 102 112 88 107 124 145 194 185 156 115 79 63 64 51 28 3 26 44 44 31 20 10 358 6 31 50
271 272 276 279 280 282 283 286 293 297 300 300 285 276 274 227 183 183 156 17 317 282 272 292 296 301 308 305 262 206 220 219 231 245 222 205 218 234 239 252 264 275 290 301 308 310 302 325 289 264 266 318 321 325 56 45 324 350 350 322 345 109 161 156 120 132 167 148 146 136 121 135 133 84 69 66 70 81 84 80 74 75 66 17 12 24 28
269 271 276 280 280 282 283 286 291 295 300 301 291 276 222 168 171 172 143 73 282 276 285 297 298 296 295 287 272 254 233 225 226 223 204 207 228 236 234 242 248 254 269 283 294 295 271 272 272 278 307 349 353 263 13 72 72 340 334 350 38 98 127 117 113 112 90 101 117 114 107 115 112 91 83 79 75 79 85 80 70 65 58 39 24 16 9
267 269 276 280 279 282 285 285 291 296 297 298 297 283 130 150 171 174 177 224 246 270 296 305 293 293 298 293 284 277 248 225 219 212 207 219 227 221 221 232 240 244 253 264 271 278 287 289 283 291 317 342 40 164 358 81 113 346 353 47 81 93 91 90 99 103 94 95 103 102 98 98 97 91 84 76 71 75 76 67 55 51 51 43 29 21 21
269 270 277 280 279 284 287 286 290 293 289 285 275 228 161 164 181 184 205 238 251 278 297 283 275 293 301 295 283 282 252 220 213 211 216 219 216 208 212 224 234 238 236 238 249 263 273 281 277 294 332 358 31 92 106 80 90 78 53 76 86 89 85 83 86 93 98 100 97 92 85 82 86 86 74 64 66 69 67 62 54 52 57 54 38 32 35
271 275 279 280 279 283 287 289 291 288 281 271 249 225 193 113 167 190 213 242 260 287 300 285 281 290 292 298 306 301 255 218 211 214 226 228 224 224 223 222 228 238 238 236 246 254 247 248 262 281 319 357 20 55 80 79 100 157 134 99 89 87 85 82 80 84 94 99 95 86 73 65 70 72 64 62 68 65 58 54 48 45 53 54 38 30 31
266 273 275 275 279 285 290 292 293 287 279 268 245 221 174 67 109 174 212 264 277 287 278 272 294 273 267 309 323 298 219 206 204 209 225 233 225 222 223 222 227 239 239 230 226 235 241 240 253 280 315 6 64 84 71 48 92 119 110 94 87 87 85 82 80 80 82 84 85 82 70 62 67 70 66 63 63 58 51 46 35 25 24 21 16 14 12
262 269 270 273 279 288 292 292 292 288 279 264 232 193 126 60 347 305 312 304 290 277 239 238 270 279 282 314 328 239 197 194 189 197 221 231 218 213 208 205 213 222 217 216 223 255 264 237 208 251 309 359 84 92 31 29 76 87 89 85 85 88 86 82 79 78 78 79 78 73 67 66 69 66 56 46 39 37 37 30 22 16 13 11 11 8 2
254 259 268 275 285 295 299 296 290 282 264 240 219 172 109 347 294 296 302 297 282 265 243 240 248 269 298 317 330 253 226 228 210 212 220 212 208 211 200 176 184 210 202 206 217 237 252 227 147 174 273 5 65 73 57 86 88 88 87 84 85 88 88 81 76 76 78 79 74 63 57 57 55 48 39 31 24 20 17 13 10 8 6 3 1 357 353
250 261 272 286 298 303 304 294 271 254 220 208 325 347 325 297 285 284 287 279 254 241 272 286 266 259 278 293 312 325 321 304 255 222 208 192 199 209 201 177 178 202 191 193 203 211 233 263 86 96 350 11 51 104 111 102 94 88 86 85 87 88 87 81 77 75 72 65 57 48 42 40 39 33 26 22 19 15 10 6 5 3 359 354 350 347 345
258 270 282 299 311 315 333 67 82 320 351 359 321 299 282 273 269 267 269 262 242 238 255 280 276 263 255 258 299 328 335 330 318 211 182 170 180 193 192 186 184 176 169 203 259 218 206 163 67 63 47 49 78 98 100 96 93 90 88 88 88 87 83 77 71 64 52 39 30 24 22 22 22 16 5 0 1 3 2 0 359 357 354 349 343 341 340
262 279 295 317 331 350 46 61 20 310 303 299 297 292 273 254 249 248 240 233 232 236 235 235 254 262 252 255 299 322 329 342 8 36 57 16 11 170 173 132 146 168 143 297 242 200 93 70 67 66 56 49 59 73 85 88 88 89 87 85 83 80 74 65 51 42 44 40 29 17 11 9 7 4 355 346 344 346 348 345 341 340 343 342 338 333 332
241 352 7 350 336 328 346 3 331 284 283 285 287 290 260 217 217 225 204 195 210 223 217 222 244 247 234 231 290 327 339 353 19 31 27 11 13 36 109 34 5 173 56 32 249 19 56 65 66 64 50 29 43 62 75 80 82 82 81 79 78 74 69 65 58 53 54 51 35 17 10 1 351 346 343 338 335 334 332 329 326 326 328 329 329 327 326
88 48 34 344 323 320 336 1 2 274 290 276 256 264 247 210 213 204 178 179 216 213 203 215 248 251 241 233 251 326 0 19 34 27 19 9 10 16 45 291 348 49 65 358 302 15 63 82 71 61 49 19 38 60 69 71 72 73 73 74 76 74 72 71 67 56 47 37 20 9 4 352 337 334 335 332 330 330 331 329 325 322 321 322 322 321 320
69 39 5 329 324 333 5 55 88 303 310 286 233 241 235 221 237 234 192 185 286 225 202 208 250 267 253 233 227 271 1 24 38 37 30 358 3 19 49 231 325 49 77 262 333 44 73 83 68 63 62 48 49 56 60 59 60 61 60 60 61 60 56 53 49 36 21 12 4 356 348 337 327 327 328 325 323 325 327 327 321 316 314 316 314 312 310
63 5 343 338 342 356 21 39 29 344 317 297 283 299 266 223 261 261 207 218 271 229 197 200 212 238 164 162 167 125 16 25 31 36 39 360 360 18 58 287 4 60 120 208 52 64 72 76 75 83 83 67 59 56 54 52 52 52 48 42 39 37 33 31 30 26 17 7 356 350 347 334 319 315 320 324 322 319 318 320 319 314 310 309 307 305 305
26 331 344 7 25 28 22 13 6 354 342 59 35 350 328 307 291 264 219 242 266 254 198 204 203 131 85 80 70 52 38 33 32 34 42 359 351 6 45 37 30 68 242 18 58 70 69 71 86 95 86 73 64 59 57 51 47 46 43 37 31 29 28 27 27 23 16 8 353 345 347 340 326 323 325 325 322 320 320 320 318 313 310 309 308 308 307
354 343 6 39 33 18 12 1 356 359 12 62 87 97 330 327 308 293 314 289 275 331 35 14 177 125 78 42 42 49 39 27 26 23 12 8 7 14 49 36 301 290 10 52 71 84 82 72 78 86 82 73 63 61 59 52 44 44 44 40 35 32 28 23 21 18 11 0 345 336 333 331 332 338 338 330 323 322 320 317 316 317 318 317 318 319 318
22 12 21 28 9 3 7 356 349 341 281 248 207 192 210 298 275 270 315 326 339 47 54 64 103 109 75 39 49 50 11 8 29 21 347 24 37 13 336 246 272 346 60 72 70 74 79 55 37 66 73 68 62 61 59 50 45 47 49 46 42 38 31 25 21 14 5 357 353 350 346 340 337 340 339 333 328 324 321 322 326 329 330 331 332 332 330
27 15 21 32 349 343 356 36 14 358 228 227 241 238 239 250 272 314 360 15 28 45 55 65 81 86 64 38 49 38 10 20 42 352 345 45 67 342 318 311 2 37 64 79 70 73 90 202 18 62 67 63 58 57 53 46 43 45 46 45 43 37 33 30 28 23 18 14 11 7 360 351 345 339 334 333 332 330 329 333 336 335 337 338 338 337 337
29 19 24 24 325 328 330 235 279 281 268 274 287 288 276 284 17 23 26 29 35 44 55 63 68 71 59 45 40 14 4 26 38 343 353 61 117 310 342 28 44 39 61 80 82 94 157 176 81 72 68 60 56 54 50 46 42 40 41 42 40 36 35 34 33 31 29 23 14 8 5 1 358 354 347 344 347 346 342 342 343 342 345 345 343 343 345
23 23 26 13 274 223 291 328 328 321 319 325 330 335 16 78 53 35 30 33 37 43 47 46 48 55 42 28 22 343 356 25 31 337 346 52 75 344 12 45 48 32 54 85 101 127 154 124 92 82 76 69 63 56 51 48 43 38 38 39 34 32 34 35 33 32 31 29 28 27 23 18 14 10 4 0 359 354 349 349 349 350 355 355 350 347 349
17 18 5 326 263 282 340 357 359 353 356 3 8 21 49 62 47 33 32 35 34 33 32 28 31 35 353 352 10 22 356 9 26 325 358 38 70 62 45 63 62 48 49 71 108 110 109 104 96 90 87 83 72 57 49 49 44 38 38 36 29 27 31 32 29 29 29 30 32 32 29 25 25 22 18 16 13 7 4 3 2 1 3 3 357 350 347
18 8 343 334 316 330 354 8 13 357 354 0 4 12 32 42 36 29 31 28 21 22 30 36 39 40 341 351 31 38 317 301 115 85 37 28 64 75 64 67 64 58 86 115 114 106 100 97 93 91 89 86 75 54 42 44 43 38 33 27 22 21 24 24 22 22 22 23 26 28 27 28 28 25 22 23 20 14 10 10 8 6 7 8 4 358 354
16 353 337 355 18 8 359 2 360 326 335 344 346 352 13 28 25 19 20 16 11 13 19 9 8 24 37 38 47 343 286 312 59 66 44 16 23 62 85 98 97 96 106 103 100 96 85 69 68 80 85 79 67 46 31 31 33 31 27 24 22 22 22 20 18 16 13 14 19 24 26 28 27 23 21 24 25 23 20 17 12 8 6 6 4 359 355
5 334 327 349 19 21 12 3 347 332 332 336 343 355 17 29 25 21 23 20 15 14 10 1 18 56 61 4 319 301 325 17 43 47 41 28 21 44 94 109 97 88 90 87 82 77 59 33 30 42 49 42 33 25 16 14 18 24 26 26 23 20 17 13 9 5 1 2 8 14 22 28 28 23 23 30 34 34 32 28 22 15 9 6 7 4 359
Height
1505 1503 1501 1499 1497 1495 1493 1490 1487 1483 1479 1475 1474 1471 1470 1469 1465 1459 1460 1461 1459 1460 1459 1457 1457 1456 1454 1452 1451 1450 1448 1445 1443 1443 1443 1441 1439 1439 1437 1436 1436 1435 1431 1428 1428 1429 1426 1420 1417 1415 1412 1408 1403 1399 1400 1403 1406 1411 1419 1420 1417 1423 1435 1445 1447 1440 1431 1423 1416 1413 1412 1417 1428 1430 1429 1435 1441 1443 1448 1455 1457 1460 1466 1468 1476 1487 1474
1504 1502 1501 1498 1497 1495 1493 1491 1488 1484 1481 1477 1475 1472 1470 1468 1462 1456 1457 1459 1458 1459 1459 1458 1457 1455 1452 1451 1449 1447 1444 1442 1441 1441 1440 1439 1437 1437 1434 1431 1430 1428 1424 1422 1422 1423 1423 1418 1411 1410 1410 1404 1396 1393 1394 1398 1403 1407 1411 1412 1414 1424 1433 1440 1450 1453 1447 1439 1435 1429 1421 1422 1428 1429 1427 1430 1433 1436 1441 1445 1450 1458 1464 1464 1474 1485 1472
1503 1501 1500 1498 1496 1494 1492 1491 1488 1485 1483 1480 1477 1475 1471 1467 1462 1456 1454 1456 1456 1456 1455 1455 1455 1453 1452 1450 1447 1445 1441 1438 1437 1436 1435 1434 1433 1433 1430 1426 1425 1423 1421 1422 1419 1417 1418 1416 1409 1406 1406 1401 1394 1393 1394 1395 1397 1397 1398 1398 1405 1420 1428 1432 1446 1459 1461 1456 1448 1439 1431 1427 1427 1425 1424 1426 1429 1433 1441 1448 1454 1460 1463 1462 1467 1473 1466
1502 1500 1498 1497 1495 1493 1491 1490 1488 1486 1483 1480 1478 1476 1473 1471 1467 1460 1455 1453 1453 1454 1452 1453 1454 1453 1455 1453 1446 1443 1440 1435 1432 1432 1430 1428 1427 1427 1425 1423 1424 1424 1424 1425 1421 1415 1413 1414 1411 1407 1405 1402 1395 1393 1394 1395 1395 1393 1393 1393 1399 1413 1421 1423 1432 1442 1444 1442 1434 1424 1422 1427 1429 1426 1424 1424 1426 1428 1436 1448 1454 1454 1456 1460 1459 1459 1461
1500 1498 1497 1496 1494 1492 1491 1489 1487 1485 1483 1480 1478 1476 1474 1474 1472 1468 1464 1458 1454 1453 1451 1452 1455 1455 1458 1457 1448 1443 1441 1436 1432 1429 1427 1424 1423 1422 1419 1420 1424 1426 1427 1427 1423 1417 1415 1415 1414 1411 1407 1402 1396 1392 1391 1394 1395 1394 1392 1393 1398 1411 1420 1419 1422 1425 1424 1423 1421 1416 1417 1422 1425 1425 1424 1423 1423 1426 1433 1442 1446 1446 1453 1461 1457 1452 1457
1499 1497 1496 1494 1493 1491 1489 1488 1486 1484 1482 1479 1477 1476 1475 1474 1472 1471 1471 1468 1463 1460 1456 1455 1457 1455 1454 1454 1447 1443 1441 1436 1433 1429 1424 1421 1420 1420 1418 1418 1420 1422 1426 1428 1425 1420 1418 1418 1416 1413 1409 1406 1402 1396 1391 1391 1393 1393 1394 1394 1396 1407 1416 1415 1417 1419 1416 1415 1415 1413 1415 1417 1417 1418 1420 1421 1422 1426 1429 1432 1435 1438 1446 1451 1449 1448 1450
1498 1496 1495 1493 1491 1490 1488 1487 1485 1483 1482 1479 1477 1477 1475 1475 1473 1471 1471 1471 1469 1466 1461 1459 1458 1454 1452 1451 1446 1442 1440 1435 1430 1426 1424 1422 1419 1417 1419 1418 1417 1418 1420 1424 1424 1421 1420 1421 1418 1412 1410 1410 1409 1405 1399 1394 1392 1394 1397 1395 1393 1402 1409 1408 1411 1416 1414 1412 1413 1412 1413 1415 1415 1416 1416 1417 1420 1423 1425 1426 1427 1430 1433 1435 1439 1444 1442
1497 1495 1494 1492 1490 1489 1487 1486 1484 1482 1481 1480 1478 1478 1476 1476 1476 1473 1471 1470 1467 1465 1461 1459 1458 1454 1451 1450 1445 1440 1439 1435 1429 1424 1425 1427 1422 1417 1420 1418 1415 1415 1416 1417 1419 1418 1416 1418 1416 1411 1410 1411 1411 1410 1406 1400 1396 1396 1398 1396 1394 1401 1406 1402 1405 1415 1415 1409 1409 1411 1412 1413 1415 1416 1415 1415 1417 1419 1422 1425 1425 1428 1432 1432 1436 1444 1441
1496 1494 1493 1491 1489 1488 1486 1485 1484 1482 1481 1479 1478 1478 1477 1477 1477 1476 1474 1471 1466 1463 1461 1459 1458 1454 1450 1449 1445 1441 1437 1432 1428 1423 1420 1423 1423 1421 1421 1418 1413 1414 1415 1415 1416 1413 1410 1411 1409 1406 1408 1408 1407 1408 1405 1401 1401 1401 1400 1398 1396 1400 1405 1400 1403 1417 1418 1408 1409 1413 1411 1412 1416 1417 1416 1416 1418 1420 1422 1422 1423 1426 1431 1436 1443 1447 1440
1494 1493 1492 1490 1488 1487 1485 1484 1483 1482 1480 1479 1478 1478 1477 1476 1475 1475 1475 1471 1466 1464 1462 1458 1457 1454 1450 1449 1447 1443 1437 1429 1426 1423 1418 1416 1419 1419 1418 1416 1413 1415 1417 1416 1413 1410 1407 1407 1404 1403 1404 1401 1400 1403 1401 1399 1402 1402 1400 1401 1399 1400 1403 1402 1405 1417 1417 1408 1407 1409 1411 1422 1429 1422 1416 1416 1417 1418 1419 1420 1420 1419 1422 1433 1442 1438 1427
1492 1491 1490 1488 1487 1486 1484 1484 1482 1481 1480 1479 1478 1478 1477 1476 1475 1473 1474 1472 1466 1464 1463 1460 1457 1454 1450 1449 1447 1441 1436 1429 1425 1426 1422 1417 1416 1416 1415 1413 1413 1416 1417 1415 1411 1408 1406 1405 1403 1401 1401 1399 1396 1397 1398 1396 1397 1398 1398 1400 1400 1398 1401 1403 1403 1410 1416 1411 1404 1407 1420 1435 1434 1419 1410 1412 1413 1415 1419 1422 1422 1419 1417 1420 1424 1422 1420
1490 1489 1488 1487 1486 1485 1484 1483 1482 1480 1480 1479 1478 1478 1477 1477 1476 1475 1475 1473 1468 1465 1465 1462 1459 1456 1451 1448 1446 1440 1435 1431 1427 1424 1423 1418 1415 1416 1414 1413 1414 1416 1415 1413 1409 1406 1404 1403 1402 1400 1398 1397 1395 1394 1395 1396 1395 1393 1393 1397 1401 1399 1400 1403 1403 1406 1414 1411 1407 1421 1437 1435 1421 1410 1406 1408 1409 1411 1417 1421 1420 1418 1416 1415 1416 1418 1418
1488 1487 1486 1485 1484 1484 1483 1482 1480 1479 1479 1478 1477 1477 1476 1476 1476 1474 1474 1474 1469 1465 1465 1462 1457 1456 1452 1447 1443 1438 1433 1430 1425 1422 1420 1418 1416 1416 1414 1414 1416 1415 1413 1411 1408 1406 1405 1404 1404 1404 1401 1398 1396 1395 1395 1395 1394 1392 1389 1391 1396 1398 1400 1404 1406 1409 1414 1413 1416 1431 1436 1423 1410 1408 1406 1406 1410 1412 1417 1424 1425 1421 1419 1417 1418 1420 1418
1486 1485 1484 1484 1483 1482 1481 1480 1479 1478 1477 1477 1476 1475 1475 1475 1474 1473 1473 1473 1468 1464 1464 1462 1456 1453 1450 1446 1441 1436 1431 1427 1423 1420 1419 1419 1418 1416 1414 1414 1414 1411 1409 1408 1406 1405 1408 1409 1409 1410 1407 1405 1406 1404 1398 1393 1392 1391 1390 1388 1389 1394 1399 1404 1410 1413 1416 1418 1421 1424 1426 1423 1419 1415 1410 1408 1411 1412 1417 1428 1431 1424 1422 1421 1420 1421 1421
1484 1483 1483 1482 1481 1481 1480 1478 1477 1476 1475 1475 1474 1473 1474 1473 1473 1473 1472 1471 1469 1463 1461 1460 1457 1453 1450 1445 1441 1437 1432 1429 1425 1422 1420 1420 1418 1416 1414 1412 1409 1407 1404 1405 1405 1405 1408 1412 1416 1419 1418 1416 1417 1413 1404 1397 1393 1389 1388 1389 1388 1390 1395 1402 1411 1416 1416 1419 1425 1428 1434 1438 1432 1422 1412 1406 1406 1405 1408 1424 1433 1426 1422 1424 1422 1421 1423
1482 1481 1481 1480 1479 1479 1478 1477 1476 1475 1474 1473 1472 1472 1472 1472 1471 1471 1471 1471 1470 1462 1455 1454 1455 1455 1451 1446 1442 1440 1436 1433 1430 1425 1421 1421 1419 1416 1413 1410 1408 1407 1404 1404 1406 1407 1409 1414 1418 1421 1420 1417 1417 1416 1409 1404 1401 1394 1390 1390 1391 1393 1395 1398 1407 1415 1415 1419 1429 1435 1440 1440 1432 1421 1412 1406 1406 1402 1403 1427 1443 1432 1422 1425 1423 1421 1422
1479 1479 1479 1478 1478 1477 1476 1475 1474 1473 1472 1471 1470 1470 1470 1470 1470 1470 1469 1469 1468 1461 1453 1452 1455 1454 1452 1447 1443 1441 1439 1436 1434 1431 1429 1427 1424 1420 1415 1411 1409 1409 1407 1407 1409 1410 1413 1416 1417 1419 1417 1410 1410 1416 1415 1410 1411 1408 1403 1401 1400 1401 1401 1402 1409 1418 1419 1422 1428 1431 1431 1431 1427 1420 1414 1409 1406 1402 1414 1444 1454 1435 1424 1426 1424 1423 1425
1477 1477 1476 1476 1476 1475 1474 1474 1473 1471 1470 1470 1468 1468 1469 1468 1468 1468 1467 1467 1467 1459 1451 1452 1454 1452 1451 1449 1446 1443 1442 1440 1438 1436 1433 1430 1428 1426 1423 1420 1417 1415 1412 1414 1416 1417 1418 1417 1416 1419 1417 1406 1403 1411 1416 1416 1419 1420 1417 1414 1412 1410 1410 1412 1417 1422 1422 1423 1428 1431 1430 1426 1421 1418 1414 1408 1405 1414 1436 1454 1448 1431 1428 1429 1425 1426 1428
1475 1474 1474 1474 1473 1473 1472 1472 1471 1469 1468 1468 1467 1466 1467 1467 1467 1467 1466 1466 1465 1458 1449 1450 1452 1450 1449 1449 1447 1444 1443 1442 1440 1438 1435 1433 1432 1429 1426 1425 1426 1423 1419 1419 1420 1421 1423 1421 1414 1413 1413 1408 1403 1408 1415 1418 1420 1419 1417 1417 1418 1418 1418 1419 1422 1427 1429 1429 1431 1435 1434 1425 1417 1415 1411 1407 1415 1433 1446 1444 1436 1432 1432 1430 1428 1429 1429
1472 1472 1472 1472 1471 1471 1470 1469 1469 1468 1466 1466 1465 1464 1464 1465 1465 1465 1465 1464 1463 1457 1448 1447 1448 1447 1447 1447 1446 1444 1443 1442 1440 1439 1438 1437 1435 1432 1431 1432 1432 1431 1428 1428 1428 1428 1431 1432 1423 1415 1414 1412 1408 1411 1418 1420 1417 1415 1415 1418 1420 1421 1422 1426 1428 1430 1432 1432 1434 1440 1441 1428 1416 1414 1414 1415 1425 1436 1435 1431 1432 1434 1431 1429 1431 1431 1430
1470 1470 1469 1469 1469 1468 1468 1467 1467 1466 1465 1464 1463 1462 1462 1463 1463 1463 1463 1462 1461 1457 1448 1445 1446 1445 1445 1444 1443 1443 1443 1441 1440 1439 1439 1439 1436 1436 1438 1440 1441 1439 1436 1435 1436 1433 1433 1434 1430 1422 1418 1414 1411 1415 1421 1422 1418 1412 1411 1415 1421 1424 1427 1431 1432 1428 1428 1433 1438 1441 1439 1428 1416 1416 1423 1428 1430 1431 1430 1431 1433 1432 1431 1431 1431 1431 1433
1467 1467 1467 1467 1467 1466 1466 1465 1465 1464 1463 1463 1462 1460 1460 1461 1461 1461 1460 1458 1458 1454 1447 1444 1443 1442 1441 1441 1440 1440 1440 1439 1439 1439 1440 1439 1437 1437 1438 1439 1441 1442 1438 1436 1437 1436 1434 1434 1432 1429 1425 1420 1416 1419 1421 1421 1420 1416 1412 1416 1423 1426 1424 1425 1429 1428 1427 1431 1435 1434 1430 1425 1419 1420 1426 1430 1431 1433 1435 1435 1434 1434 1434 1432 1431 1432 1435
1465 1465 1465 1465 1465 1464 1464 1463 1463 1462 1461 1461 1460 1459 1458 1459 1459 1459 1458 1456 1454 1450 1445 1442 1441 1438 1437 1437 1437 1437 1437 1437 1437 1437 1438 1439 1437 1436 1437 1437 1438 1439 1437 1436 1437 1436 1435 1435 1432 1430 1428 1421 1417 1419 1418 1417 1419 1418 1416 1417 1420 1421 1418 1417 1422 1427 1427 1428 1431 1429 1428 1427 1424 1423 1426 1429 1431 1435 1436 1437 1439 1440 1439 1436 1433 1434 1437
1463 1463 1463 1463 1462 1462 1462 1461 1461 1461 1460 1459 1459 1457 1457 1457 1457 1456 1456 1454 1453 1449 1443 1439 1437 1436 1435 1434 1433 1434 1435 1435 1436 1435 1437 1438 1436 1435 1436 1436 1437 1437 1435 1435 1435 1434 1434 1433 1430 1430 1428 1421 1416 1418 1419 1418 1418 1416 1416 1418 1418 1417 1416 1416 1421 1426 1429 1432 1432 1429 1428 1429 1427 1426 1428 1428 1431 1434 1436 1438 1441 1443 1443 1443 1440 1438 1440
1461 1461 1461 1461 1461 1460 1460 1460 1459 1459 1458 1457 1457 1456 1455 1455 1456 1455 1454 1454 1453 1451 1447 1441 1435 1434 1434 1433 1432 1433 1434 1434 1435 1435 1436 1436 1435 1434 1435 1434 1435 1436 1434 1434 1433 1432 1433 1432 1430 1432 1431 1422 1417 1418 1419 1418 1416 1414 1416 1421 1420 1416 1415 1417 1421 1424 1427 1431 1430 1427 1427 1429 1428 1429 1430 1429 1431 1434 1436 1437 1441 1444 1447 1449 1446 1442 1438
1459 1459 1459 1459 1459 1459 1458 1458 1457 1457 1456 1455 1455 1454 1454 1454 1454 1454 1454 1454 1453 1451 1449 1443 1435 1432 1433 1432 1431 1432 1432 1432 1433 1434 1434 1434 1433 1433 1433 1433 1434 1434 1433 1433 1432 1430 1431 1431 1430 1432 1431 1424 1420 1419 1418 1416 1414 1413 1416 1417 1415 1414 1415 1417 1420 1425 1429 1430 1428 1426 1427 1429 1429 1430 1431 1432 1433 1435 1436 1438 1441 1445 1449 1450 1446 1442 1438
1457 1457 1457 1457 1457 1457 1456 1456 1456 1455 1454 1454 1453 1452 1452 1452 1452 1453 1453 1453 1452 1451 1449 1444 1436 1432 1431 1430 1429 1430 1430 1431 1432 1432 1432 1432 1432 1432 1432 1433 1433 1433 1432 1432 1430 1429 1429 1429 1428 1428 1428 1424 1420 1419 1418 1418 1417 1415 1415 1414 1411 1413 1418 1418 1421 1428 1430 1428 1425 1425 1427 1430 1431 1430 1431 1433 1435 1436 1437 1438 1440 1444 1450 1452 1449 1444 1442
1455 1455 1456 1455 1456 1455 1455 1455 1454 1453 1453 1452 1451 1451 1450 1450 1451 1452 1452 1452 1452 1451 1449 1445 1439 1434 1431 1428 1427 1428 1429 1429 1430 1430 1430 1431 1431 1431 1432 1431 1432 1432 1431 1431 1430 1429 1429 1429 1427 1425 1423 1422 1422 1421 1420 1422 1424 1422 1418 1415 1412 1413 1416 1417 1420 1425 1426 1424 1424 1425 1427 1430 1433 1432 1433 1435 1436 1437 1438 1438 1440 1445 1450 1451 1449 1446 1445
1453 1454 1454 1454 1454 1454 1454 1453 1453 1452 1452 1451 1450 1449 1449 1450 1451 1451 1451 1452 1452 1451 1449 1446 1441 1435 1431 1428 1426 1427 1427 1428 1428 1428 1429 1429 1429 1430 1430 1431 1431 1431 1431 1430 1430 1430 1429 1428 1426 1425 1423 1422 1424 1424 1422 1426 1431 1429 1422 1417 1414 1413 1415 1416 1417 1420 1423 1425 1427 1428 1428 1432 1435 1437 1437 1438 1439 1440 1440 1441 1443 1446 1446 1446 1446 1447 1447
1452 1452 1453 1453 1453 1453 1452 1452 1452 1451 1451 1450 1449 1449 1449 1450 1450 1451 1451 1451 1451 1450 1449 1448 1442 1435 1430 1427 1425 1425 1425 1426 1427 1427 1427 1428 1428 1428 1429 1429 1430 1430 1430 1430 1430 1429 1428 1427 1425 1424 1423 1421 1421 1422 1424 1427 1430 1429 1424 1419 1417 1417 1419 1420 1420 1421 1424 1428 1429 1430 1432 1435 1438 1439 1440 1441 1442 1443 1444 1445 1446 1446 1445 1445 1446 1448 1448
1451 1451 1452 1451 1451 1451 1451 1451 1450 1450 1450 1449 1449 1449 1449 1449 1450 1450 1450 1451 1450 1449 1449 1448 1443 1436 1430 1425 1423 1424 1424 1424 1425 1426 1427 1427 1427 1428 1428 1428 1429 1429 1429 1430 1430 1429 1428 1427 1425 1423 1422 1421 1420 1422 1425 1427 1430 1430 1427 1423 1422 1422 1423 1424 1425 1426 1428 1430 1431 1432 1435 1438 1439 1441 1442 1443 1444 1445 1445 1447 1448 1447 1447 1447 1447 1448 1448
1450 1450 1450 1450 1450 1450 1450 1449 1449 1449 1449 1449 1448 1448 1448 1448 1449 1450 1450 1450 1449 1449 1448 1447 1444 1438 1432 1425 1422 1422 1422 1423 1424 1425 1425 1426 1426 1427 1427 1427 1428 1428 1428 1429 1429 1428 1427 1426 1425 1422 1422 1421 1421 1423 1426 1429 1431 1431 1428 1426 1426 1426 1427 1428 1429 1430 1431 1432 1432 1434 1438 1440 1442 1443 1444 1445 1446 1446 1446 1447 1447 1447 1447 1448 1447 1447 1447
1449 1449 1449 1449 1449 1448 1449 1448 1448 1448 1448 1447 1447 1447 1448 1448 1449 1449 1449 1449 1449 1448 1448 1447 1445 1440 1433 1426 1422 1421 1420 1422 1423 1424 1424 1424 1425 1425 1426 1426 1427 1427 1428 1428 1428 1427 1425 1425 1424 1422 1422 1422 1422 1424 1428 1429 1429 1429 1429 1429 1429 1429 1430 1431 1432 1433 1434 1435 1436 1438 1442 1445 1445 1445 1446 1446 1446 1447 1447 1447 1446 1446 1446 1446 1446 1446 1446
1448 1448 1448 1448 1447 1447 1447 1447 1447 1447 1447 1446 1447 1447 1447 1448 1448 1448 1449 1448 1448 1447 1447 1447 1445 1440 1433 1427 1423 1421 1420 1421 1422 1423 1423 1423 1423 1424 1425 1425 1426 1426 1426 1426 1426 1425 1425 1424 1423 1422 1422 1422 1423 1427 1430 1431 1430 1430 1431 1432 1432 1431 1432 1434 1436 1437 1438 1439 1440 1441 1444 1445 1445 1445 1445 1445 1446 1446 1446 1445 1445 1445 1445 1445 1445 1445 1444
1447 1447 1447 1447 1447 1447 1446 1446 1446 1446 1446 1446 1446 1446 1447 1447 1447 1448 1448 1447 1447 1447 1446 1445 1443 1441 1436 1431 1426 1422 1420 1420 1421 1421 1421 1422 1423 1423 1423 1424 1426 1426 1425 1425 1425 1425 1424 1423 1423 1424 1424 1424 1426 1430 1434 1434 1433 1433 1433 1433 1434 1434 1434 1436 1439 1440 1441 1441 1442 1443 1444 1445 1445 1446 1447 1447 1447 1447 1446 1445 1445 1446 1445 1445 1445 1445 1444
1446 1446 1446 1446 1446 1446 1445 1445 1445 1445 1446 1446 1446 1446 1446 1446 1446 1447 1447 1446 1446 1446 1445 1443 1442 1440 1437 1435 1430 1424 1421 1420 1420 1420 1420 1421 1422 1423 1423 1424 1425 1424 1424 1424 1424 1424 1423 1422 1423 1425 1426 1428 1432 1435 1435 1434 1434 1433 1434 1435 1436 1437 1438 1439 1441 1441 1441 1442 1443 1444 1445 1446 1447 1448 1448 1448 1448 1448 1448 1447 1446 1446 1445 1445 1444 1444 1443
1446 1446 1446 1446 1445 1445 1445 1445 1445 1446 1446 1446 1446 1446 1446 1445 1445 1446 1445 1444 1445 1445 1444 1443 1442 1438 1436 1435 1431 1425 1422 1421 1419 1418 1420 1421 1421 1421 1422 1423 1423 1423 1424 1424 1424 1423 1422 1422 1425 1429 1433 1436 1438 1438 1435 1434 1435 1435 1437 1439 1440 1440 1441 1442 1442 1442 1442 1442 1442 1443 1444 1445 1446 1447 1447 1447 1447 1447 1447 1447 1446 1446 1445 1444 1443 1443 1442
1446 1446 1446 1446 1445 1445 1445 1445 1445 1445 1445 1445 1445 1445 1444 1444 1444 1444 1444 1443 1443 1443 1442 1442 1440 1435 1435 1434 1430 1424 1423 1422 1420 1419 1420 1421 1421 1421 1421 1422 1423 1423 1424 1425 1423 1421 1423 1426 1430 1436 1441 1442 1442 1441 1440 1438 1439 1440 1441 1442 1442 1442 1443 1443 1443 1442 1443 1443 1444 1444 1444 1445 1445 1446 1447 1447 1447 1446 1446 1446 1446 1445 1445 1444 1443 1442 1441
1446 1446 1446 1446 1445 1445 1445 1445 1445 1445 1445 1444 1445 1444 1443 1443 1444 1443 1442 1442 1442 1441 1441 1440 1436 1433 1433 1433 1428 1425 1423 1422 1421 1422 1422 1422 1422 1423 1423 1423 1423 1423 1425 1426 1423 1422 1427 1433 1437 1443 1448 1448 1446 1446 1446 1444 1443 1444 1444 1444 1444 1444 1444 1444 1444 1445 1446 1447 1448 1448 1447 1446 1446 1446 1446 1446 1446 1446 1446 1446 1445 1444 1443 1443 1442 1441 1440
1446 1446 1446 1446 1445 1445 1445 1445 1445 1445 1444 1444 1444 1444 1443 1443 1442 1441 1440 1440 1440 1438 1437 1436 1432 1429 1429 1430 1429 1426 1424 1423 1423 1424 1424 1423 1423 1423 1424 1424 1424 1424 1428 1429 1425 1423 1430 1439 1444 1450 1454 1454 1451 1450 1449 1448 1446 1446 1446 1446 1446 1446 1446 1446 1447 1447 1448 1448 1449 1448 1448 1447 1446 1446 1445 1445 1444 1444 1444 1444 1443 1443 1442 1442 1441 1440 1440
1446 1447 1447 1446 1445 1445 1445 1444 1444 1444 1444 1443 1444 1444 1443 1442 1440 1438 1438 1438 1437 1434 1432 1431 1430 1428 1427 1427 1428 1427 1425 1424 1424 1424 1424 1424 1423 1423 1425 1425 1424 1426 1431 1431 1425 1425 1434 1444 1450 1455 1456 1455 1452 1451 1450 1449 1448 1447 1447 1446 1446 1446 1446 1447 1447 1447 1447 1448 1448 1447 1447 1447 1446 1446 1445 1444 1443 1443 1442 1442 1441 1441 1441 1440 1440 1439 1439
1447 1447 1447 1446 1446 1445 1445 1444 1445 1444 1444 1444 1444 1443 1441 1440 1438 1437 1437 1436 1433 1430 1428 1429 1429 1428 1426 1426 1426 1426 1425 1425 1424 1424 1425 1425 1424 1424 1425 1425 1425 1429 1431 1428 1425 1430 1440 1449 1456 1458 1457 1455 1454 1452 1451 1450 1449 1448 1447 1447 1446 1447 1447 1447 1447 1447 1448 1448 1447 1447 1446 1446 1445 1445 1444 1444 1443 1443 1442 1441 1441 1440 1439 1439 1438 1438 1437
1448 1448 1447 1447 1446 1446 1445 1445 1445 1445 1445 1445 1445 1443 1442 1440 1437 1436 1434 1432 1429 1427 1427 1427 1427 1427 1426 1426 1426 1426 1426 1426 1425 1425 1426 1426 1425 1425 1426 1427 1428 1430 1428 1426 1431 1441 1449 1454 1458 1458 1456 1455 1455 1454 1452 1451 1450 1449 1448 1448 1447 1447 1447 1447 1447 1448 1447 1447 1447 1446 1446 1445 1444 1444 1443 1443 1442 1441 1441 1441 1440 1439 1438 1438 1437 1436 1436
1449 1449 1448 1447 1447 1447 1447 1447 1446 1446 1446 1446 1445 1444 1443 1440 1437 1435 1434 1431 1428 1427 1427 1427 1426 1426 1427 1427 1427 1427 1427 1427 1427 1427 1427 1428 1427 1428 1429 1431 1431 1428 1427 1432 1440 1449 1453 1455 1457 1457 1456 1456 1456 1454 1453 1452 1451 1450 1449 1449 1449 1448 1448 1447 1447 1447 1447 1446 1446 1446 1445 1445 1444 1444 1443 1442 1441 1441 1440 1440 1439 1438 1437 1437 1436 1435 1434
1450 1449 1449 1449 1448 1448 1448 1448 1447 1447 1446 1446 1445 1444 1442 1440 1438 1437 1434 1432 1429 1428 1428 1427 1426 1426 1427 1428 1428 1429 1429 1428 1429 1429 1429 1430 1431 1431 1432 1432 1430 1428 1432 1440 1448 1453 1456 1458 1457 1456 1455 1456 1455 1454 1454 1453 1452 1451 1451 1450 1449 1449 1448 1447 1447 1447 1446 1446 1446 1445 1445 1444 1444 1443 1443 1442 1441 1441 1440 1439 1438 1437 1437 1435 1434 1433 1432
1451 1450 1450 1451 1450 1449 1449 1450 1449 1447 1445 1443 1442 1442 1440 1439 1439 1437 1434 1432 1430 1429 1429 1428 1428 1428 1429 1430 1430 1431 1430 1430 1431 1432 1431 1432 1435 1434 1432 1431 1431 1433 1439 1449 1456 1459 1460 1460 1457 1455 1455 1455 1454 1454 1453 1453 1452 1452 1451 1450 1450 1450 1449 1448 1447 1447 1446 1446 1445 1445 1444 1444 1443 1442 1442 1442 1441 1440 1440 1439 1438 1437 1436 1435 1434 1433 1431
1452 1451 1452 1453 1452 1451 1450 1450 1448 1446 1444 1442 1441 1440 1440 1440 1439 1438 1436 1434 1433 1431 1430 1431 1430 1431 1431 1431 1432 1432 1431 1431 1433 1434 1434 1435 1437 1436 1433 1433 1437 1441 1447 1456 1461 1461 1460 1458 1456 1456 1456 1455 1454 1454 1454 1453 1453 1453 1452 1452 1451 1451 1449 1449 1448 1446 1446 1446 1445 1444 1444 1443 1442 1442 1441 1441 1440 1440 1439 1438 1437 1436 1435 1434 1433 1432 1431
1453 1453 1453 1454 1453 1452 1451 1449 1447 1445 1443 1442 1441 1440 1440 1440 1440 1439 1438 1436 1434 1433 1432 1433 1433 1433 1433 1433 1434 1434 1433 1433 1436 1436 1435 1436 1439 1439 1439 1442 1447 1449 1452 1457 1460 1459 1457 1457 1457 1457 1456 1455 1455 1455 1455 1454 1454 1454 1453 1452 1452 1451 1450 1449 1448 1447 1446 1445 1444 1444 1443 1442 1441 1441 1440 1439 1439 1439 1438 1437 1436 1435 1434 1433 1432 1431 1431
1454 1454 1455 1455 1454 1452 1451 1449 1446 1444 1443 1442 1441 1440 1439 1438 1438 1438 1438 1437 1436 1435 1435 1434 1435 1436 1436 1436 1435 1436 1436 1436 1438 1438 1438 1439 1442 1443 1445 1451 1456 1457 1457 1458 1458 1457 1457 1457 1457 1457 1457 1456 1456 1456 1455 1455 1455 1454 1453 1452 1452 1450 1450 1449 1448 1447 1446 1445 1444 1443 1443 1441 1441 1440 1439 1438 1438 1437 1436 1435 1435 1434 1433 1432 1432 1431 1431
1456 1456 1456 1455 1455 1453 1451 1449 1448 1447 1446 1444 1443 1442 1441 1440 1440 1439 1439 1439 1438 1437 1437 1436 1436 1437 1437 1437 1438 1439 1439 1438 1438 1440 1442 1442 1442 1444 1450 1457 1460 1459 1458 1458 1457 1457 1457 1457 1457 1457 1457 1456 1456 1455 1455 1455 1454 1453 1452 1452 1451 1450 1449 1448 1447 1447 1446 1445 1444 1443 1442 1441 1440 1440 1439 1438 1438 1437 1436 1436 1435 1434 1434 1433 1432 1432 1431
1458 1457 1457 1457 1457 1456 1454 1453 1453 1453 1451 1449 1447 1446 1445 1444 1443 1442 1442 1441 1440 1439 1439 1438 1438 1438 1439 1440 1442 1442 1440 1438 1438 1442 1445 1446 1445 1448 1456 1461 1460 1458 1457 1458 1457 1457 1457 1457 1456 1456 1456 1455 1455 1455 1454 1453 1453 1452 1451 1450 1449 1449 1448 1447 1447 1446 1446 1445 1445 1444 1443 1442 1441 1440 1440 1439 1439 1438 1437 1437 1436 1435 1435 1434 1433 1432 1432
1459 1459 1458 1457 1457 1457 1456 1455 1455 1454 1453 1451 1450 1449 1448 1447 1446 1445 1444 1443 1442 1441 1441 1440 1441 1442 1443 1444 1443 1442 1440 1440 1444 1448 1451 1452 1451 1453 1457 1458 1457 1456 1457 1457 1456 1456 1456 1456 1455 1455 1455 1454 1454 1453 1453 1453 1452 1451 1450 1450 1449 1448 1448 1448 1447 1447 1447 1446 1446 1445 1444 1443 1443 1442 1441 1440 1440 1439 1438 1438 1437 1436 1435 1434 1433 1432 1432